BRISAT (41591 NORAD) Tracking and Keplerian Element Data

This shows tracking and keplerian element data for the satellite.

Feedback or suggestion? Click here.




ElementValue
Catalog41591
NameBRISAT
Epoch Orbit1045
Epoch Day113.92230441
Epoch Year2019
RAAN255.5353
Inclination0.0164
Eccentricity0.0002255
Argument of Perigee141.2927
Mean Anonmoly297.3635
Mean Motion1.00271435
Decay Rate-2.12E-06
L11 41591U 16039A 19113.92230441 -.00000212 00000-0 00000+0 0 9994
L22 41591 0.0164 255.5353 0002255 141.2927 297.3635 1.00271435 10459

Live tracking and technical data element details for BRISAT (NORAD 41591). BRISAT can be tracked NOW for your location showing map with azimuth and elevation plus other details from your city location.

Track the satellite on the map from your city or location and see movement details for azimuth, elevation, latitude, longitude, range, height, and movement on the map or in text.







IsCatalogInMostPopularTable: catalog: 41591, numindb: 191
Update: records affected: 1



GetName: 41591 BRISAT

Hit Count: updated at: Wed, 24 Apr 2019 18:05:13 GMT